| time (UTC) | temp F | wind direction | speed MPH | gust MPH | rain 1hr in | rain 24hr in | rain mn in | humidity % | barometer mb |
| 20260510163015 | 67 | 328 | 4.0 | 12.0 | 0.00 | 0.01 | 0.01 | 45 | 1019.4 |
| 20260510161512 | 66 | 15 | 3.0 | 8.0 | 0.00 | 0.01 | 0.01 | 45 | 1019.4 |
| 20260510160008 | 66 | 319 | 2.0 | 8.0 | 0.00 | 0.01 | 0.01 | 44 | 1019.6 |
| 20260510154531 | 65 | 311 | 2.0 | 7.0 | 0.00 | 0.01 | 0.01 | 44 | 1019.7 |
| 20260510153041 | 65 | 20 | 2.0 | 6.0 | 0.00 | 0.01 | 0.01 | 50 | 1019.6 |
| 20260510151520 | 64 | 318 | 2.0 | 14.0 | 0.00 | 0.01 | 0.01 | 47 | 1019.7 |
| 20260510150018 | 64 | 322 | 2.0 | 9.0 | 0.00 | 0.01 | 0.01 | 50 | 1019.5 |
| 20260510144541 | 63 | 304 | 2.0 | 9.0 | 0.00 | 0.01 | 0.01 | 53 | 1019.4 |
| 20260510143013 | 62 | 309 | 2.0 | 6.0 | 0.00 | 0.01 | 0.01 | 58 | 1019.3 |
| 20260510141513 | 62 | 30 | 3.0 | 9.0 | 0.00 | 0.01 | 0.01 | 58 | 1018.9 |
| 20260510140025 | 61 | 44 | 2.0 | 8.0 | 0.00 | 0.01 | 0.01 | 61 | 1018.5 |
| 20260510134524 | 60 | 304 | 3.0 | 10.0 | 0.00 | 0.01 | 0.01 | 66 | 1018.2 |
| 20260510133024 | 60 | 311 | 1.0 | 5.0 | 0.00 | 0.01 | 0.01 | 69 | 1018.2 |
| 20260510131521 | 58 | 12 | 1.0 | 3.0 | 0.00 | 0.01 | 0.01 | 74 | 1017.9 |
| 20260510130019 | 57 | 319 | 1.0 | 4.0 | 0.00 | 0.01 | 0.01 | 78 | 1017.8 |
| 20260510124520 | 56 | 36 | 1.0 | 6.0 | 0.00 | 0.01 | 0.01 | 80 | 1017.9 |
| 20260510123015 | 56 | 325 | 0.0 | 3.0 | 0.00 | 0.01 | 0.01 | 82 | 1017.6 |
| 20260510121512 | 56 | 311 | 2.0 | 4.0 | 0.00 | 0.01 | 0.01 | 83 | 1017.3 |
| 20260510120029 | 56 | 312 | 1.0 | 7.0 | 0.00 | 0.01 | 0.01 | 85 | 1017.4 |
| 20260510114527 | 57 | 307 | 1.0 | 4.0 | 0.00 | 0.01 | 0.01 | 87 | 1016.9 |
| 20260510113026 | 57 | 309 | 1.0 | 4.0 | 0.00 | 0.01 | 0.01 | 88 | 1016.8 |
| 20260510111523 | 58 | 360 | 0.0 | 6.0 | 0.00 | 0.01 | 0.01 | 89 | 1016.4 |
| 20260510110025 | 58 | 344 | 0.0 | 2.0 | 0.00 | 0.01 | 0.01 | 91 | 1015.9 |
| 20260510104519 | 58 | 55 | 2.0 | 4.0 | 0.00 | 0.01 | 0.01 | 92 | 1015.6 |
| 20260510103016 | 58 | 337 | 1.0 | 4.0 | 0.00 | 0.01 | 0.01 | 93 | 1015.4 |
| 20260510101513 | 58 | 71 | 1.0 | 3.0 | 0.00 | 0.01 | 0.01 | 93 | 1015.1 |
| 20260510100012 | 58 | 317 | 0.0 | 1.0 | 0.00 | 0.01 | 0.01 | 92 | 1015.1 |
| 20260510094506 | 58 | 58 | 0.0 | 1.0 | 0.00 | 0.01 | 0.01 | 92 | 1015.4 |
| 20260510093025 | 58 | 331 | 2.0 | 5.0 | 0.00 | 0.01 | 0.01 | 92 | 1015.5 |
| 20260510091526 | 58 | 45 | 0.0 | 2.0 | 0.00 | 0.01 | 0.01 | 92 | 1014.6 |
| 20260510090023 | 58 | 319 | 1.0 | 2.0 | 0.00 | 0.01 | 0.01 | 92 | 1014.6 |
| 20260510084540 | 58 | 105 | 0.0 | 1.0 | 0.01 | 0.01 | 0.01 | 92 | 1014.4 |
| 20260510083015 | 59 | 311 | 0.0 | 0.0 | 0.01 | 0.01 | 0.01 | 91 | 1014.0 |
| 20260510081533 | 59 | 311 | 0.0 | 0.0 | 0.01 | 0.01 | 0.01 | 90 | 1013.7 |
| 20260510080012 | 60 | 311 | 1.0 | 2.0 | 0.01 | 0.01 | 0.01 | 88 | 1013.6 |
| 20260510074528 | 60 | 75 | 0.0 | 4.0 | 0.00 | 0.00 | 0.00 | 85 | 1013.7 |
| 20260510073036 | 60 | 256 | 1.0 | 2.0 | 0.00 | 0.00 | 0.00 | 85 | 1014.1 |
| 20260510071526 | 61 | 55 | 0.0 | 1.0 | 0.00 | 0.00 | 0.00 | 83 | 1013.5 |
| 20260510070024 | 60 | 55 | 1.0 | 2.0 | 0.00 | 0.00 | 0.00 | 84 | 1013.7 |
| 20260510064516 | 60 | 323 | 0.0 | 1.0 | 0.00 | 0.00 | 0.00 | 86 | 1013.7 |
| 20260510063017 | 60 | 147 | 0.0 | 1.0 | 0.00 | 0.00 | 0.00 | 83 | 1013.6 |
| 20260510061514 | 61 | 147 | 0.0 | 0.0 | 0.00 | 0.00 | 0.00 | 85 | 1013.3 |
| 20260510060036 | 62 | 147 | 0.0 | 1.0 | 0.00 | 0.00 | 0.00 | 82 | 1013.3 |
| 20260510054528 | 62 | 150 | 0.0 | 1.0 | 0.00 | 0.00 | 0.00 | 77 | 1013.0 |
| 20260510053028 | 63 | 356 | 0.0 | 1.0 | 0.00 | 0.00 | 0.00 | 80 | 1013.0 |
| 20260510051522 | 63 | 352 | 0.0 | 1.0 | 0.00 | 0.00 | 0.00 | 76 | 1013.0 |
| 20260510050024 | 63 | 351 | 1.0 | 1.0 | 0.00 | 0.00 | 0.00 | 74 | 1012.7 |
| 20260510044522 | 64 | 283 | 0.0 | 1.0 | 0.00 | 0.00 | 0.00 | 72 | 1012.4 |
| 20260510043016 | 64 | 283 | 1.0 | 2.0 | 0.00 | 0.00 | 0.00 | 71 | 1012.4 |
| 20260510041534 | 65 | 309 | 1.0 | 3.0 | 0.00 | 0.00 | 0.00 | 69 | 1012.3 |
| 20260510040027 | 66 | 314 | 1.0 | 6.0 | 0.00 | 0.00 | 0.00 | 68 | 1012.2 |
| 20260510034529 | 66 | 307 | 4.0 | 9.0 | 0.00 | 0.01 | 0.00 | 65 | 1012.2 |
| 20260510033027 | 62 | 311 | 5.0 | 7.0 | 0.00 | 0.09 | 0.00 | 73 | 1011.9 |
| 20260510031524 | 60 | 150 | 0.0 | 1.0 | 0.00 | 0.27 | 0.00 | 79 | 1011.2 |
| 20260510030027 | 58 | 226 | 0.0 | 1.0 | 0.00 | 0.38 | 0.00 | 87 | 1011.0 |
| 20260510024529 | 58 | 226 | 0.0 | 0.0 | 0.00 | 0.42 | 0.00 | 87 | 1010.7 |
| 20260510023019 | 58 | 226 | 0.0 | 0.0 | 0.00 | 0.48 | 0.00 | 86 | 1010.5 |
| 20260510021516 | 59 | 226 | 0.0 | 1.0 | 0.00 | 0.62 | 0.00 | 85 | 1010.4 |
| 20260510020011 | 60 | 226 | 0.0 | 0.0 | 0.00 | 0.70 | 0.00 | 84 | 1010.1 |
| 20260510014508 | 61 | 226 | 0.0 | 1.0 | 0.00 | 0.74 | 0.00 | 82 | 1009.9 |
| 20260510013005 | 63 | 226 | 0.0 | 0.0 | 0.00 | 0.74 | 0.00 | 78 | 1009.7 |
| 20260510011507 | 65 | 226 | 0.0 | 0.0 | 0.00 | 0.74 | 0.00 | 74 | 1009.5 |
| 20260510010025 | 68 | 226 | 0.0 | 1.0 | 0.00 | 0.74 | 0.00 | 69 | 1009.4 |
| 20260510004521 | 71 | 226 | 0.0 | 1.0 | 0.00 | 0.74 | 0.00 | 59 | 1009.3 |
| 20260510003027 | 75 | 226 | 0.0 | 0.0 | 0.00 | 0.74 | 0.00 | 50 | 1009.2 |
| 20260510001516 | 80 | 255 | 0.0 | 0.0 | 0.00 | 0.76 | 0.00 | 39 | 1009.1 |
| 20260510000014 | 81 | 255 | 0.0 | 1.0 | 0.00 | 0.79 | 0.00 | 35 | 1009.0 |
| 20260509234513 | 80 | 233 | 1.0 | 3.0 | 0.00 | 0.80 | 0.00 | 36 | 1009.0 |
| 20260509233005 | 81 | 283 | 2.0 | 4.0 | 0.00 | 0.80 | 0.00 | 34 | 1009.1 |
| 20260509231528 | 80 | 242 | 1.0 | 4.0 | 0.00 | 0.80 | 0.00 | 34 | 1009.1 |
| 20260509230024 | 80 | 274 | 4.0 | 6.0 | 0.00 | 0.80 | 0.00 | 34 | 1009.1 |
| 20260509224522 | 80 | 270 | 3.0 | 7.0 | 0.00 | 0.80 | 0.00 | 33 | 1009.0 |
| 20260509223020 | 81 | 236 | 1.0 | 9.0 | 0.00 | 0.80 | 0.00 | 37 | 1009.0 |
| 20260509221517 | 80 | 282 | 4.0 | 8.0 | 0.00 | 0.80 | 0.00 | 33 | 1008.9 |
| 20260509220016 | 80 | 257 | 3.0 | 10.0 | 0.00 | 0.80 | 0.00 | 34 | 1009.0 |
| 20260509214510 | 80 | 327 | 4.0 | 7.0 | 0.00 | 0.80 | 0.00 | 33 | 1009.0 |
| 20260509213009 | 80 | 256 | 1.0 | 10.0 | 0.00 | 0.80 | 0.00 | 39 | 1009.1 |
| 20260509211527 | 80 | 302 | 6.0 | 10.0 | 0.00 | 0.80 | 0.00 | 36 | 1009.2 |
| 20260509210027 | 80 | 301 | 2.0 | 12.0 | 0.00 | 0.80 | 0.00 | 37 | 1009.3 |
| 20260509204524 | 80 | 290 | 4.0 | 9.0 | 0.00 | 0.80 | 0.00 | 38 | 1009.5 |
| 20260509203018 | 80 | 243 | 2.0 | 8.0 | 0.00 | 0.80 | 0.00 | 41 | 1009.5 |
| 20260509201519 | 80 | 287 | 4.0 | 11.0 | 0.00 | 0.80 | 0.00 | 37 | 1009.6 |
| 20260509200015 | 80 | 148 | 2.0 | 9.0 | 0.00 | 0.80 | 0.00 | 36 | 1009.8 |
| 20260509194521 | 79 | 237 | 2.0 | 11.0 | 0.00 | 0.80 | 0.00 | 37 | 1009.8 |
| 20260509193028 | 79 | 267 | 4.0 | 9.0 | 0.00 | 0.80 | 0.00 | 41 | 1009.9 |
| 20260509191524 | 79 | 236 | 3.0 | 9.0 | 0.00 | 0.80 | 0.00 | 37 | 1010.0 |
| 20260509190025 | 78 | 277 | 4.0 | 10.0 | 0.00 | 0.80 | 0.00 | 43 | 1010.1 |
| 20260509184535 | 77 | 336 | 5.0 | 13.0 | 0.00 | 0.80 | 0.00 | 40 | 1010.1 |
| 20260509183021 | 77 | 216 | 5.0 | 13.0 | 0.00 | 0.80 | 0.00 | 43 | 1010.0 |
| 20260509181519 | 77 | 342 | 4.0 | 10.0 | 0.00 | 0.80 | 0.00 | 42 | 1010.0 |
| 20260509180021 | 77 | 276 | 4.0 | 9.0 | 0.00 | 0.80 | 0.00 | 45 | 1010.1 |
| 20260509174534 | 76 | 191 | 5.0 | 10.0 | 0.00 | 0.80 | 0.00 | 44 | 1010.2 |
| 20260509173028 | 75 | 326 | 5.0 | 14.0 | 0.00 | 0.80 | 0.00 | 48 | 1010.3 |
| 20260509171524 | 75 | 297 | 4.0 | 10.0 | 0.00 | 0.80 | 0.00 | 47 | 1010.5 |
| 20260509170026 | 74 | 278 | 3.0 | 15.0 | 0.00 | 0.80 | 0.00 | 53 | 1010.7 |
| 20260509164523 | 73 | 290 | 4.0 | 12.0 | 0.00 | 0.80 | 0.00 | 51 | 1010.8 |